Previsão horária em Alichur

Hoje, 24 Novembro, Terça-feira

Tempo Temperatura Precipitação Vento Pressão Humidade
00:00 -22°C° 0 mm 3 m/s 446 mmHg 94%
01:00 -23°C° 0 mm 3 m/s 446 mmHg 94%
02:00 -24°C° 0 mm 3 m/s 445 mmHg 95%
03:00 -24°C° 0 mm 3 m/s 445 mmHg 95%
04:00 -25°C° 0 mm 3 m/s 445 mmHg 95%
05:00 -25°C° 0 mm 3 m/s 445 mmHg 93%
06:00 -25°C° 0 mm 3 m/s 445 mmHg 93%
07:00 -24°C° 0 mm 2 m/s 445 mmHg 94%
08:00 -24°C° 0 mm 2 m/s 445 mmHg 94%
09:00 -21°C° 0 mm 2 m/s 446 mmHg 92%
10:00 -19°C° 0 mm 2 m/s 447 mmHg 90%
11:00 -18°C° 0 mm 3 m/s 448 mmHg 85%
12:00 -16°C° 0 mm 2 m/s 448 mmHg 85%
13:00 -16°C° 0 mm 2 m/s 447 mmHg 84%
14:00 -15°C° 0 mm 2 m/s 447 mmHg 83%
15:00 -17°C° 0 mm 2 m/s 446 mmHg 86%
16:00 -18°C° 0 mm 2 m/s 446 mmHg 89%
17:00 -19°C° 0 mm 2 m/s 445 mmHg 89%
18:00 -19°C° 0 mm 2 m/s 445 mmHg 90%
19:00 -20°C° 0 mm 2 m/s 445 mmHg 91%
20:00 -19°C° 0 mm 1 m/s 444 mmHg 92%
21:00 -19°C° 0 mm 1 m/s 444 mmHg 92%
22:00 -19°C° 0 mm 1 m/s 444 mmHg 92%
23:00 -20°C° 0 mm 1 m/s 444 mmHg 92%

Amanhã, 25 Novembro, Quarta-feira

Tempo Temperatura Precipitação Vento Pressão Humidade
00:00 -20°C° 0 mm 1 m/s 444 mmHg 92%
01:00 -20°C° 0 mm 1 m/s 444 mmHg 92%
02:00 -23°C° 0 mm 2 m/s 444 mmHg 92%
03:00 -23°C° 0 mm 2 m/s 444 mmHg 92%
04:00 -24°C° 0 mm 2 m/s 443 mmHg 92%
05:00 -24°C° 0 mm 2 m/s 443 mmHg 92%
06:00 -24°C° 0 mm 2 m/s 444 mmHg 91%
07:00 -23°C° 0 mm 2 m/s 444 mmHg 90%
08:00 -20°C° 0 mm 1 m/s 445 mmHg 88%
09:00 -18°C° 0 mm 1 m/s 446 mmHg 85%
10:00 -16°C° 0 mm 1 m/s 447 mmHg 82%
11:00 -15°C° 0 mm 1 m/s 447 mmHg 79%
12:00 -14°C° 0 mm 1 m/s 447 mmHg 80%
13:00 -14°C° 0 mm 1 m/s 447 mmHg 80%
14:00 -13°C° 0 mm 1 m/s 447 mmHg 81%
15:00 -15°C° 0 mm 1 m/s 445 mmHg 85%
16:00 -17°C° 0 mm 1 m/s 444 mmHg 89%
17:00 -19°C° 0 mm 1 m/s 442 mmHg 94%
18:00 -18°C° 0 mm 1 m/s 443 mmHg 93%
19:00 -18°C° 0 mm 1 m/s 444 mmHg 93%
20:00 -20°C° 0 mm 2 m/s 445 mmHg 93%
21:00 -19°C° 0.1 mm 2 m/s 446 mmHg 94%
22:00 -19°C° 0.1 mm 2 m/s 446 mmHg 95%
23:00 -18°C° 0.1 mm 2 m/s 447 mmHg 97%

Depois de amanhã, 26 Novembro, Quinta-feira

Tempo Temperatura Precipitação Vento Pressão Humidade
00:00 -20°C° 0 mm 2 m/s 447 mmHg 96%
01:00 -23°C° 0 mm 3 m/s 446 mmHg 94%
02:00 -24°C° 0 mm 3 m/s 446 mmHg 93%
03:00 -25°C° 0 mm 3 m/s 445 mmHg 94%
04:00 -26°C° 0 mm 3 m/s 445 mmHg 94%
05:00 -27°C° 0 mm 3 m/s 445 mmHg 95%
06:00 -29°C° 0 mm 3 m/s 446 mmHg 95%
07:00 -29°C° 0 mm 3 m/s 446 mmHg 95%
08:00 -29°C° 0 mm 3 m/s 447 mmHg 95%
09:00 -26°C° 0 mm 3 m/s 448 mmHg 93%
10:00 -24°C° 0 mm 3 m/s 449 mmHg 91%
11:00 -22°C° 0 mm 3 m/s 450 mmHg 89%
12:00 -21°C° 0 mm 3 m/s 450 mmHg 87%
13:00 -21°C° 0 mm 3 m/s 450 mmHg 85%
14:00 -19°C° 0 mm 3 m/s 450 mmHg 83%
15:00 -22°C° 0 mm 3 m/s 449 mmHg 82%
16:00 -23°C° 0 mm 2 m/s 448 mmHg 81%
17:00 -25°C° 0 mm 2 m/s 447 mmHg 80%
18:00 -25°C° 0 mm 2 m/s 448 mmHg 77%
19:00 -25°C° 0 mm 2 m/s 448 mmHg 75%
20:00 -25°C° 0 mm 2 m/s 449 mmHg 72%
21:00 -26°C° 0 mm 2 m/s 449 mmHg 71%
22:00 -26°C° 0 mm 2 m/s 449 mmHg 70%
23:00 -26°C° 0 mm 2 m/s 449 mmHg 69%

27 Novembro, Sexta-feira

Tempo Temperatura Precipitação Vento Pressão Humidade
00:00 -26°C° 0 mm 2 m/s 449 mmHg 67%
01:00 -26°C° 0 mm 2 m/s 449 mmHg 66%
02:00 -26°C° 0 mm 2 m/s 449 mmHg 65%
03:00 -26°C° 0 mm 2 m/s 449 mmHg 64%
04:00 -27°C° 0 mm 2 m/s 449 mmHg 63%
05:00 -27°C° 0 mm 2 m/s 449 mmHg 63%
06:00 -26°C° 0 mm 2 m/s 450 mmHg 63%
07:00 -25°C° 0 mm 2 m/s 450 mmHg 63%
08:00 -25°C° 0 mm 2 m/s 451 mmHg 62%
09:00 -23°C° 0 mm 2 m/s 452 mmHg 64%
10:00 -19°C° 0 mm 2 m/s 453 mmHg 65%
11:00 -17°C° 0 mm 2 m/s 454 mmHg 66%
12:00 -16°C° 0 mm 2 m/s 454 mmHg 68%
13:00 -16°C° 0 mm 2 m/s 454 mmHg 71%
14:00 -15°C° 0 mm 2 m/s 453 mmHg 73%
15:00 -16°C° 0 mm 2 m/s 452 mmHg 71%
16:00 -18°C° 0 mm 2 m/s 451 mmHg 69%
17:00 -19°C° 0 mm 2 m/s 450 mmHg 68%
18:00 -20°C° 0 mm 2 m/s 450 mmHg 67%
19:00 -20°C° 0 mm 2 m/s 450 mmHg 67%
20:00 -20°C° 0 mm 2 m/s 451 mmHg 66%
21:00 -20°C° 0 mm 2 m/s 450 mmHg 68%
22:00 -20°C° 0 mm 2 m/s 450 mmHg 70%
23:00 -21°C° 0 mm 2 m/s 450 mmHg 72%

28 Novembro, Sábado

Tempo Temperatura Precipitação Vento Pressão Humidade
00:00 -21°C° 0 mm 2 m/s 450 mmHg 73%
01:00 -20°C° 0 mm 2 m/s 450 mmHg 74%
02:00 -20°C° 0 mm 2 m/s 450 mmHg 75%
03:00 -20°C° 0 mm 2 m/s 451 mmHg 75%
04:00 -19°C° 0 mm 2 m/s 451 mmHg 76%
05:00 -21°C° 0 mm 3 m/s 451 mmHg 76%
06:00 -19°C° 0.1 mm 3 m/s 452 mmHg 81%
07:00 -18°C° 0.1 mm 3 m/s 453 mmHg 85%
08:00 -18°C° 0.1 mm 3 m/s 453 mmHg 89%
09:00 -16°C° 0.1 mm 3 m/s 454 mmHg 88%
10:00 -16°C° 0.1 mm 4 m/s 455 mmHg 86%
11:00 -14°C° 0.1 mm 4 m/s 456 mmHg 85%
12:00 -14°C° 0 mm 4 m/s 456 mmHg 82%
13:00 -12°C° 0 mm 4 m/s 456 mmHg 79%
14:00 -12°C° 0 mm 3 m/s 456 mmHg 77%
15:00 -14°C° 0 mm 3 m/s 454 mmHg 78%
16:00 -17°C° 0 mm 3 m/s 453 mmHg 80%
17:00 -19°C° 0 mm 3 m/s 452 mmHg 81%
18:00 -19°C° 0 mm 2 m/s 452 mmHg 84%
19:00 -20°C° 0 mm 2 m/s 451 mmHg 86%
20:00 -21°C° 0 mm 2 m/s 451 mmHg 89%
21:00 -23°C° 0 mm 2 m/s 451 mmHg 91%
22:00 -23°C° 0 mm 2 m/s 451 mmHg 93%
23:00 -24°C° 0 mm 2 m/s 450 mmHg 95%

29 Novembro, Domingo

Tempo Temperatura Precipitação Vento Pressão Humidade
00:00 -25°C° 0 mm 2 m/s 450 mmHg 94%
01:00 -25°C° 0 mm 2 m/s 450 mmHg 92%
02:00 -25°C° 0 mm 2 m/s 449 mmHg 91%
03:00 -26°C° 0 mm 2 m/s 449 mmHg 89%
04:00 -26°C° 0 mm 2 m/s 449 mmHg 88%
05:00 -26°C° 0 mm 2 m/s 449 mmHg 86%
06:00 -26°C° 0 mm 2 m/s 450 mmHg 84%
07:00 -26°C° 0 mm 2 m/s 450 mmHg 82%
08:00 -26°C° 0 mm 2 m/s 450 mmHg 79%
09:00 -24°C° 0 mm 2 m/s 451 mmHg 78%
10:00 -20°C° 0 mm 2 m/s 452 mmHg 77%
11:00 -18°C° 0 mm 2 m/s 453 mmHg 76%
12:00 -18°C° 0 mm 2 m/s 453 mmHg 75%
13:00 -17°C° 0 mm 2 m/s 453 mmHg 74%
14:00 -16°C° 0 mm 2 m/s 453 mmHg 72%
15:00 -18°C° 0 mm 2 m/s 452 mmHg 66%
16:00 -20°C° 0 mm 2 m/s 450 mmHg 59%
17:00 -23°C° 0 mm 2 m/s 449 mmHg 52%
18:00 -24°C° 0 mm 2 m/s 449 mmHg 48%
19:00 -24°C° 0 mm 2 m/s 449 mmHg 43%
20:00 -24°C° 0 mm 2 m/s 449 mmHg 39%
21:00 -24°C° 0 mm 2 m/s 449 mmHg 38%
22:00 -24°C° 0 mm 2 m/s 449 mmHg 36%
23:00 -24°C° 0 mm 2 m/s 449 mmHg 35%
Mostrar mais